Location: Chomutov
(50.4500°N, 13.4333°E)
Time: 19:04:09
(UTC+02:00)

FO-29 - Pass Details

Date: 26 September 2021
Orbit: 800 x 1321 km, 98.6° (Epoch: 23 October)

Event Time Altitude Azimuth Distance (km) Brightness Sun altitude
Exits shadow 23:46:50 13° 252° (WSW) 3,085 12.1 -38.9°
Maximum altitude 23:50:10 17° 280° (W) 2,856 12.1 -39.1°
Drops below altitude 10° 23:54:50 10° 317° (NW) 3,361 12.9 -39.4°
Sets 23:58:58 0° 337° (NNW) 4,328 13.8 -39.6°
